Miscellaneous Local Product
Issued by NWS Hastings, NE

Home | Current Version | Previous Version | Text Only | Print | Product List | Glossary Off
Versions: 1 2 3 4 5 6 7 8 9 10 11 12 13 14 15 16 17 18 19 20 21 22 23 24 25 26 27 28 29 30 31 32 33 34 35 36 37 38 39 40 41 42 43 44 45 46 47 48 49 50

000
AXUS43 KGID 010802
MISGRI

GID CWA HOURLY WEATHER ROUNDUP
NATIONAL WEATHER SERVICE HASTINGS NE
300 AM CDT SAT AUG 01 2015

NOTE: "FAIR" INDICATES FEW OR NO CLOUDS BELOW 12,000 FEET WITH NO
SIGNIFICANT WEATHER AND/OR OBSTRUCTIONS TO VISIBILITY.

...SOUTH CENTRAL NEBRASKA...

CITY           SKY/WX    TMP DP  RH WIND       PRES   REMARKS
GRAND ISLAND   MOCLDY    65  63  93 N7        30.09F
HASTINGS       MOCLDY    70  61  73 SW6       30.07F
KEARNEY        CLEAR     70  61  73 S9        30.08F
ORD            MOCLDY    65  62  90 CALM      30.08F
YORK           PTCLDY    61  61 100 CALM      30.10F
AURORA         CLOUDY    64  64  97 CALM      30.08F
LEXINGTON      CLEAR     67  63  85 CALM      30.11F
HOLDREGE       PTCLDY    65  61  87 S5        30.11F
HEBRON         PTCLDY    67  63  86 NW3       30.08F

...NEBRASKA PANHANDLE...

CITY           SKY/WX    TMP DP  RH WIND       PRES   REMARKS
CHADRON        CLEAR     61  53  75 CALM      30.08F
ALLIANCE       CLEAR     60  54  80 S7        30.13F
SCOTTSBLUFF    CLEAR     65  55  70 E7        30.13F
SIDNEY         CLEAR     67  55  65 SW10      30.18F

...WESTERN AND NORTH CENTRAL NEBRASKA...

CITY           SKY/WX    TMP DP  RH WIND       PRES   REMARKS
VALENTINE      PTCLDY    67  60  78 NE5       30.11F
AINSWORTH      PTCLDY    66  62  86 S3        30.10F
ONEILL         MOCLDY    67  65  93 CALM      30.09F
BROKEN BOW     CLEAR     68  60  75 S5        30.09F
IMPERIAL       CLEAR     70  57  63 SW8       30.13F
NORTH PLATTE   CLEAR     63  60  90 E3        30.11F
MCCOOK         MOCLDY    74  62  66 E14       30.14R

...EASTERN NEBRASKA...

CITY           SKY/WX    TMP DP  RH WIND       PRES   REMARKS
NORFOLK        CLEAR     61  60  97 SW6       30.09S
SO SIOUX CITY  CLEAR     68  64  87 CALM      30.05F
TEKAMAH        CLEAR     65  63  93 N5        30.05F
COLUMBUS       CLEAR     57  52  82 CALM      30.09F
ALBION         CLEAR     60  58  94 CALM      30.10F
OMAHA EPPLEY   CLEAR     71  67  87 CALM      30.06F
OFFUTT AFB     CLEAR     67  66  98 CALM      30.05F
MILLARD        CLEAR     69  67  93 CALM      30.06F
LINCOLN        CLEAR     67  63  87 CALM      30.08F
NEBRASKA CITY  CLEAR     67  66  97 CALM      30.06F
BEATRICE       CLEAR     67  64  91 CALM      30.07F
FALLS CITY     CLEAR     70  68  93 CALM      30.04F

...NORTHERN KANSAS...

CITY           SKY/WX    TMP DP  RH WIND       PRES   REMARKS
GOODLAND       CLEAR     69  60  73 SW14      30.18F
HILL CITY      CLEAR     71  65  81 SW3       30.11F
NORTON         MOSUNNY   70  61  73 S6        30.10S
PHILLIPSBURG   CLEAR     72  66  83 CALM      30.09F
SMITH CENTER   CLEAR     68  64  88 S6        30.09F
HAYS           CLEAR     72  63  73 SW8       30.11F
RUSSELL        CLEAR     71  69  93 S9        30.09F
CONCORDIA      PTCLDY    71  65  81 CALM      30.07F
SALINA         CLEAR     72  68  87 S6        30.08S
TOPEKA         CLEAR     73  71  93 CALM      30.06F



USA.gov is the U.S. government's official web portal to all federal, state and local government web resources and services.